SCP
0 0 0 0 0 0 0 0 0 0 0 0 0 0 0 0 0 0 0 0 0 0 0 0 0 0 0 0 0 0 0 0 0 0 0 0 0 0 0 0 0 0 0
0 0 0 0 0 0 0 0 0 0 0 0 0 0 0 0 0 0 0 0 0 0 0 0 0 0 0 0 0 0 0 0 0 0 0 0 0 0 0 0 0 0 0
0 0 0 0 0 0 0 0 0 0 0 0 0 0 0 0 0 0 0 0 0 0 0 0 0 0 0 0 0 0 0 0 0 0 0 0 0 0 0 0 0 0 0
0 0 0 0 0 0 0 0 0 0 0 0 0 0 0 0 0 0 0 0 0 0 0 0 0 0 0 0 0 0 0 0 0 0 0 0 0 0 0 0 0 0 0
0 0 0 0 0 0 0 0 0 0 0 0 0 0 0 0 0 0 0 0 0 0 0 0 0 0 0 0 0 0 0 0 0 0 0 0 0 0 0 0 0 0 0
0 0 0 0 0 0 0 0 0 0 0 0 0 0 0 0 0 0 0 0 0 0 0 0 0 0 0 0 0 0 0 0 0 0 0 0 0 0 0 0 0 0 0
0 0 0 0 0 0 0 0 0 0 0 0 0 0 0 0 0 0 0 0 0 0 0 0 0 0 0 0 0 0 0 0 0 0 0 0 0 0 0 0 0 0 0
0 0 0 0 0 0 0 0 0 0 0 0 0 0 0 0 0 0 0 0 0 0 0 0 0 0 0 0 0 0 0 0 0 0 0 0 0 0 0 0 0 0 0
0 0 0 0 0 0 0 0 0 0 0 0 0 0 0 0 0 0 0 0 0 0 0 0 0 0 0 0 0 0 0 0 0 0 0 0 0 0 0 0 0 0 0
0 0 0 0 0 0 0 0 0 0 0 0 0 0 0 0 0 0 0 0 0 0 0 0 0 0 0 0 0 0 0 0 0 0 0 0 0 0 0 0 0 0 0
0 0 0 0 0 0 0 0 0 0 0 0 0 0 0 0 0 0 0 0 0 0 0 0 0 0 0 0 0 0 0 0 0 0 0 0 0 0 0 0 0 0 0
0 0 0 0 0 0 0 0 0 0 0 0 0 0 0 0 0 0 0 0 0 0 0 0 0 0 0 0 0 0 0 0 0 0 0 0 0 0 0 0 0 0 0
0 0 0 0 0 0 0 0 0 0 0 0 0 0 0 0 0 0 0 0 0 0 0 0 0 0 0 0 0 0 0 0 0 0 0 0 0 0 0 0 0 0 0
0 0 0 0 0 0 0 0 0 0 0 0 0 0 0 0 0 0 0 0 0 0 0 0 0 0 0 0 0 0 0 0 0 0 0 0 0 0 0 0 0 0 0
0 0 0 0 0 0 0 0 0 0 0 0 0 0 0 0 0 0 0 0 0 0 0 0 0 0 0 0 0 0 0 0 0 0 0 0 0 0 0 0 0 0 0
0 0 0 0 0 0 0 0 0 0 0 0 0 0 0 0 0 0 0 0 0 0 0 0 0 0 0 0 0 0 0 0 0 0 0 0 0 0 0 0 0 0 0
0 0 0 0 0 0 0 0 0 0 0 0 0 0 0 0 0 0 0 0 0 0 0 0 0 0 0 0 0 0 0 0 0 0 0 0 0 0 0 0 0 0 0
0 0 0 0 0 0 0 0 0 0 0 0 0 0 0 0 0 0 0 0 0 0 0 0 0 0 0 0 0 0 0 0 0 0 0 0 0 0 0 0 0 0 0
0 0 0 0 0 0 0 0 0 0 0 0 0 0 0 0 0 0 0 0 0 0 0 0 0 0 0 0 0 0 0 0 0 0 0 0 0 0 0 0 0 0 0
0 0 0 0 0 0 0 0 0 0 0 0 0 0 0 0 0 0 0 0 0 0 0 0 0 0 0 0 -0 -0 -0 0 0 0 0 0 0 0 0 0 0 0 0
0 0 0 0 0 0 0 0 0 0 0 0 0 0 0 0 0 0 0 0 0 0 0 0 0 0 0 -0 -0 0 0 0 0 0 0 0 0 0 0 0 0 0 0
0 0 0 0 0 0 0 0 0 0 0 0 0 0 0 0 0 0 0 0 0 0 0 0 0 0 0 0 0 0 0 0 0 0 0 0 0 0 0 0 0 0 0
0 0 0 0 0 0 0 0 0 0 0 0 0 0 0 0 0 0 0 0 0 0 0 0 0 0 0 0 0 0 0 0 0 0 0 0 0 0 0 0 0 0 0
0 0 0 0 0 0 0 0 0 0 0 0 0 0 0 0 0 0 0 0 0 0 0 0 0 0 0 0 0 0 0 0 0 0 0 0 0 0 0 0 0 0 0
0 0 0 0 0 0 0 0 0 0 0 0 0 0 0 0 0 0 0 0 0 0 0 0 0 0 0 0 0 0 0 0 0 0 0 0 0 0 0 0 0 0 0
0 0 0 0 0 0 0 0 0 0 0 0 0 0 0 0 0 0 0 0 0 0 0 0 0 0 0 0 0 0 0 0 0 0 0 0 0 0 0 0 0 0 0
Wind_Speed
6 5 3 3 3 3 3 3 3 4 4 4 3 4 4 4 4 3 3 9 11 11 10 10 10 10 10 10 12 13 13 13 13 12 12 13 13 13 13 12 13 13 14
6 6 5 4 3 3 2 3 3 3 3 3 4 4 4 3 4 4 4 6 11 13 12 12 12 12 12 12 13 14 14 15 16 16 16 17 17 16 15 14 14 14 14
8 7 6 5 4 3 3 3 3 3 3 2 4 4 4 4 4 5 5 4 5 12 16 17 16 16 16 16 15 15 15 15 16 17 18 17 18 19 19 17 16 16 17
9 8 6 5 5 4 3 3 3 3 2 3 3 3 3 4 5 5 5 6 6 6 12 19 19 18 18 17 16 16 15 16 17 17 17 17 17 18 18 18 18 18 18
10 8 7 5 6 4 3 3 2 2 2 2 3 4 3 4 4 5 6 7 7 6 6 12 16 16 16 16 15 15 15 15 15 15 16 16 16 17 17 17 17 17 18
11 9 7 7 7 5 4 3 3 2 2 2 3 4 4 4 4 4 4 5 5 6 6 7 6 9 15 16 15 15 14 14 14 14 15 15 15 16 16 17 17 17 17
11 10 8 8 7 7 6 6 4 3 2 2 3 3 3 3 3 3 2 3 5 4 5 6 5 4 6 14 16 15 15 14 15 15 15 15 15 15 16 17 17 17 17
12 11 11 9 9 6 7 6 5 4 2 1 3 4 2 1 1 2 1 2 3 3 5 6 5 5 4 4 10 15 17 17 18 18 17 17 17 17 17 17 18 18 18
14 12 12 11 10 9 8 8 6 7 5 2 1 5 5 4 2 1 1 2 3 3 3 3 4 4 4 3 3 10 16 17 17 18 18 19 19 20 20 20 19 19 19
13 12 13 12 11 9 8 8 6 4 6 4 2 2 2 4 4 1 2 2 2 2 2 3 4 2 2 2 4 11 15 16 16 17 17 18 19 20 21 21 21 21 20
10 12 12 12 11 9 9 9 7 6 4 6 5 4 3 2 2 3 3 2 2 1 2 3 3 2 2 3 3 9 15 15 16 16 17 17 18 19 20 21 22 22 22
9 12 13 12 12 10 11 10 9 8 5 5 4 4 5 5 4 4 4 2 2 2 2 3 2 0 2 3 6 13 13 15 15 16 16 17 17 18 19 19 20 21 22
10 14 13 12 11 11 10 9 9 8 7 7 6 4 3 4 4 5 4 3 2 2 2 2 1 2 3 2 3 12 10 14 15 16 16 17 17 17 18 18 19 20 20
12 13 12 11 10 11 10 10 9 8 7 7 7 6 4 4 3 4 5 5 3 2 3 3 1 3 3 1 4 10 5 12 15 16 16 16 17 17 18 19 19 19 20
9 13 14 13 12 12 12 11 8 9 9 8 8 7 5 4 3 3 4 4 5 3 3 3 3 4 2 1 5 2 3 11 15 16 16 17 18 19 19 20 21 21 21
11 14 15 14 13 13 13 12 10 10 10 8 7 9 7 5 5 4 5 3 3 4 3 2 2 2 1 3 8 5 6 15 14 15 17 18 19 20 20 21 22 23 23
14 16 17 16 16 16 15 14 13 13 13 11 9 10 10 8 7 5 5 5 4 4 5 3 2 2 4 5 7 7 7 7 7 16 19 20 20 21 22 22 24 25 25
15 15 16 17 17 17 17 18 17 16 16 15 14 13 12 10 10 8 7 7 6 6 6 5 3 2 4 4 7 8 8 7 7 15 19 21 21 21 22 24 25 26 27
14 15 17 19 19 18 18 18 17 17 17 16 16 16 15 14 13 9 9 8 7 7 6 5 4 4 5 6 7 7 7 6 7 10 17 18 19 21 23 25 26 27 28
15 16 18 18 18 17 18 17 17 17 16 15 14 15 15 16 15 13 10 10 8 7 6 6 5 5 5 6 5 4 5 3 6 8 11 12 16 20 22 25 26 27 28
16 15 15 15 16 16 17 19 18 17 17 17 15 14 14 16 18 15 11 11 11 8 6 5 5 4 4 2 3 4 7 6 6 6 4 6 10 10 12 17 22 25 28
14 14 17 17 18 16 25 31 22 17 17 18 17 15 14 15 20 22 20 19 16 11 9 6 5 4 3 3 3 6 8 9 6 2 7 10 10 12 10 9 20 28 29
14 16 17 17 19 21 30 32 31 18 17 17 18 17 14 14 16 15 18 22 19 19 17 10 7 5 3 3 5 7 7 9 10 10 12 13 7 12 11 13 25 29 31
13 15 16 17 16 19 30 32 32 18 15 15 17 18 17 18 17 17 14 12 10 9 9 5 3 3 4 5 6 7 8 8 10 9 9 10 8 11 12 10 22 29 30
11 12 12 14 16 17 29 31 30 13 12 15 15 16 16 17 24 25 15 12 11 8 11 12 10 9 9 10 9 3 3 4 7 5 4 6 7 12 12 11 14 23 26
9 9 10 12 13 12 24 31 31 12 13 12 12 14 17 19 25 27 15 13 12 10 8 6 5 4 4 5 10 5 3 3 4 5 3 4 7 10 12 6 7 10 14
Wind_Direction
159 152 148 145 143 139 141 140 131 120 106 88 71 65 53 40 32 25 16 35 42 38 36 46 48 46 47 46 46 42 37 35 34 34 32 27 19 13 9 5 4 2 1
159 154 151 154 156 154 150 145 135 122 107 97 75 66 59 43 36 34 29 33 44 45 40 46 47 47 47 46 44 39 37 35 35 35 33 29 24 18 14 11 8 3 357
163 158 155 160 161 155 151 136 124 112 105 91 69 57 50 42 46 46 43 44 46 49 50 50 45 41 39 37 34 31 32 32 31 29 25 24 22 18 16 16 16 12 6
165 159 160 162 157 156 160 156 145 116 92 82 71 52 44 44 48 52 57 59 60 57 51 51 44 37 31 28 24 21 23 26 24 20 16 17 17 14 10 9 10 10 5
170 164 163 158 154 157 167 166 135 134 113 84 74 62 49 56 56 59 65 68 68 64 54 46 41 34 28 25 20 18 18 16 15 13 12 13 13 10 7 6 6 6 4
173 164 160 158 156 157 170 168 136 116 112 113 90 71 51 62 68 59 72 76 68 64 58 51 40 27 26 27 23 21 19 17 15 14 13 12 10 7 5 3 360 359 357
172 169 165 161 167 173 174 161 140 136 121 142 115 86 49 50 65 50 67 85 65 62 58 44 32 28 17 23 22 26 24 22 20 17 12 8 6 4 2 358 354 351 348
173 176 170 173 174 167 169 176 160 145 130 124 133 119 102 36 360 7 20 76 69 62 51 32 21 20 18 21 17 27 26 20 16 12 7 3 359 355 351 349 346 344 343
179 178 176 173 176 176 181 183 179 158 145 133 131 143 151 193 230 308 337 27 43 50 42 16 9 11 20 24 2 20 22 13 8 3 358 354 350 346 343 340 338 335 334
179 176 175 176 177 178 178 182 181 178 143 145 127 73 112 145 156 202 304 348 12 18 2 349 333 339 23 39 35 25 11 3 360 356 351 347 343 339 335 332 329 326 324
179 177 176 177 178 179 178 175 176 181 164 154 154 147 119 73 109 152 216 309 342 295 265 300 294 309 40 63 39 7 1 356 353 348 344 340 336 332 328 325 322 319 317
185 186 181 182 181 180 180 180 179 182 179 161 161 157 155 157 173 163 175 206 276 288 278 284 263 214 95 71 21 359 354 348 343 340 337 333 330 327 324 321 318 315 312
192 194 188 186 185 184 179 173 176 183 179 173 170 172 164 158 149 144 140 153 207 276 287 270 226 149 118 79 359 352 351 336 333 332 331 329 327 325 322 318 316 313 310
194 184 188 186 184 178 176 174 177 178 175 174 173 163 159 162 154 144 148 145 165 246 247 238 198 161 140 132 336 349 333 324 325 327 329 327 325 323 321 318 316 313 310
180 177 183 184 182 180 177 173 179 178 176 179 176 169 161 160 154 138 139 148 154 184 237 207 193 180 184 175 329 335 311 313 322 326 326 325 323 322 321 320 317 315 312
179 178 184 185 183 183 179 177 177 176 175 178 173 169 165 158 157 158 162 156 145 157 218 260 254 217 312 325 324 336 314 317 319 319 321 321 320 320 320 318 316 315 313
185 185 186 186 186 186 183 182 181 176 179 177 176 176 173 161 164 161 159 162 167 163 205 255 294 321 329 319 318 313 304 303 303 314 316 316 317 318 317 315 314 312 311
192 189 186 188 190 190 188 187 183 180 181 182 181 177 174 168 168 169 170 176 180 181 186 209 251 263 261 273 281 284 290 292 293 302 308 312 314 313 312 310 309 308 306
198 193 190 192 193 192 191 191 186 184 186 186 183 182 177 173 176 175 176 178 179 182 184 195 223 233 248 251 260 261 260 263 270 290 300 304 306 307 306 306 305 303 302
204 202 199 197 194 192 192 190 188 187 185 184 182 182 179 181 180 174 176 178 175 176 178 196 218 230 236 240 249 267 294 264 287 289 288 299 305 306 302 300 298 296 294
207 203 203 201 195 192 193 191 190 188 184 181 181 183 183 183 180 176 175 176 176 174 173 190 213 222 232 258 302 310 314 312 289 273 291 302 302 295 292 291 291 288 286
206 200 203 201 201 202 201 197 190 189 187 183 180 180 180 180 184 183 186 184 182 173 174 182 206 223 258 298 317 321 321 326 321 291 310 304 299 295 293 285 289 290 288
205 206 206 204 206 208 204 201 197 188 190 189 181 176 175 178 179 179 186 187 192 193 186 183 203 222 262 294 306 306 304 303 297 309 312 298 291 290 291 290 294 292 291
212 211 209 208 209 210 207 203 198 190 191 190 185 180 176 173 181 178 183 187 186 196 203 206 203 215 235 254 265 285 301 301 293 290 293 287 293 290 293 287 290 290 292
220 217 211 208 210 210 209 203 194 183 188 188 185 181 178 173 181 179 175 177 181 192 211 215 220 234 256 282 294 305 305 305 296 291 282 272 292 305 296 283 283 291 296
224 217 218 212 209 204 207 203 192 177 182 181 181 182 184 176 180 179 172 174 180 187 189 199 216 249 274 283 289 279 250 254 272 289 273 273 295 319 304 270 277 287 292